Back to catalog

STARLINK-37800

AliveCommunicationsSSO
NORAD 69436·PAYLOAD·🇺🇸 United States

Launched Jun 7, 2026 from Vandenberg Space Force Base

Loading…

Next Passes (next 24 hours)

TLE

FreshSource: CelesTrak SupGP

Epoch: Sep 14, 2026, 21:32 UTC

1 69436C 26126S   26257.89770833  .00035657  00000+0  11074-2 0  2579
2 69436  97.2849 119.2044 0001963  94.8863 327.0935 15.33406258    14

Track STARLINK-37800 in real time with AllMySat

Download on the App Store